User: anonymous   Login
Location: Unspecified
(0.0000°N, 0.0000°E)
Time: 19:02:10
(UTC+00:00)
Language:

Tsikada - Orbit

View from above orbital plane
View from above orbital plane
View from above satellite
View from above satellite

Ground track
Ground track

The orbit data is extracted from the following two-line orbital elements,

1 23463U 95002A   19341.53314515  .00000042  00000-0  30310-4 0  9996
2 23463  82.9259 338.3075 0037523 279.9670 201.5845 13.72502188245737
Epoch (UTC): 07 December 2019 12:47:43
Eccentricity: 0.0037523
inclination: 82.9259°
perigee height: 963 km
apogee height: 1018 km
right ascension of ascending node: 338.3075°
argument of perigee: 279.9670°
revolutions per day: 13.72502188
mean anomaly at epoch: 201.5845°
orbit number at epoch: 24573

The dashed part of the orbit path shows where the satellite is in the earth's shadow,  

DLR